• Join FlightAware (Why Join?)
  • Login
  • US Flag 
02:02PM EDT


 

Airport Tracker/Info


-or-


 

Live Flight TrackerFlight Track Log ✈ N9011D ✈ 15-Mar-2014 ✈ KSMS - KHNZ

Flight Track Log - Related Links

Times and Time Zones

All times are in EDT time to prevent confusion due to time zone crossing. See the N9011D flight status page for this flight to view local times or setup timezone preferences in your user account.

Time Position Orientation Groundspeed Altitude Reporting Facility
EDT Latitude Longitude Course Direction KTS MPH feet Rate Location/Type
04:52PM 34.6350 -79.8853 26° Northeast 165 190 5,600  Level Washington Center
04:54PM 34.6761 -79.8606 26° Northeast 164 189 5,600  Level Washington Center
04:55PM 34.7206 -79.8353 25° Northeast 164 189 5,600  Level Washington Center
04:56PM 34.7586 -79.8050 33° Northeast 164 189 5,600  Level Washington Center
04:57PM 34.7978 -79.7694 37° Northeast 164 189 5,600  Level Washington Center
04:58PM 34.8356 -79.7356 36° Northeast 165 190 5,600  Level Washington Center
04:59PM 34.8719 -79.7011 38° Northeast 165 190 5,600  Level Washington Center
05:00PM 34.9097 -79.6628 40° Northeast 165 190 5,600  Level Washington Center
05:01PM 34.9492 -79.6375 28° Northeast 162 186 5,600  Level Washington Center
05:02PM 34.9922 -79.6133 25° Northeast 160 184 5,600  Level Washington Center
05:03PM 35.0311 -79.5853 31° Northeast 160 184 5,600  Level Washington Center
05:04PM 35.0731 -79.5556 30° Northeast 160 184 5,600  Level Washington Center
05:05PM 35.1114 -79.5225 35° Northeast 164 189 5,600  Level Washington Center
05:06PM 35.1506 -79.4911 33° Northeast 164 189 5,600  Level Washington Center
05:07PM 35.1931 -79.4597 31° Northeast 167 192 5,600  Level Washington Center
05:08PM 35.2317 -79.4350 28° Northeast 161 185 5,600  Level Washington Center
05:09PM 35.2722 -79.4069 29° Northeast 158 182 5,600 -60 Level Washington Center
05:10PM 35.3100 -79.3789 31° Northeast 158 182 5,500 -60 Descending Washington Center
05:11PM 35.3486 -79.3436 37° Northeast 171 197 5,500  Level Washington Center
05:12PM 35.3844 -79.3078 39° Northeast 166 191 5,500  Level Washington Center
05:12PM 35.3897 -79.3056 19° North 165 190 5,500  Level Washington Center
05:13PM 35.4231 -79.2814 31° Northeast 161 185 5,500  Level Washington Center
05:14PM 35.4411 -79.2714 24° Northeast 157 181 5,500  Level Washington Center
05:14PM 35.4631 -79.2567 29° Northeast 160 184 5,500  Level Washington Center
05:14PM 35.4767 -79.2481 27° Northeast 164 189 5,500  Level Washington Center
05:15PM 35.5119 -79.2236 29° Northeast 163 188 5,500  Level Washington Center
05:16PM 35.5258 -79.2136 30° Northeast 165 190 5,500  Level Washington Center
05:16PM 35.5500 -79.1967 30° Northeast 162 186 5,500  Level Washington Center
05:17PM 35.5617 -79.1900 25° Northeast 158 182 5,500  Level Washington Center
05:18PM 35.5997 -79.1619 31° Northeast 159 183 5,500  Level Washington Center
05:18PM 35.6306 -79.1339 36° Northeast 161 185 5,500  Level Washington Center
05:19PM 35.6364 -79.1281 39° Northeast 163 188 5,500  Level Washington Center
05:19PM 35.6667 -79.1011 36° Northeast 161 185 5,500  Level Washington Center
05:20PM 35.6747 -79.0972 21° North 163 188 5,500  Level Washington Center
05:20PM 35.6994 -79.0794 30° Northeast 154 177 5,500  Level Washington Center
05:21PM 35.7478 -79.0478 28° Northeast 160 184 5,500  Level Washington Center
05:22PM 35.7597 -79.0389 31° Northeast 170 196 5,500  Level Washington Center
05:22PM 35.7883 -79.0181 31° Northeast 164 189 5,500  Level Washington Center
05:23PM 35.7911 -79.0175 North 170 196 5,500  Level Washington Center
05:23PM 35.8269 -78.9911 31° Northeast 164 189 5,500  Level Washington Center
05:23PM 35.8278 -78.9894 58° Northeast 164 189 5,500  Level Washington Center
05:24PM 35.8672 -78.9631 28° Northeast 163 188 5,500  Level Washington Center
05:25PM 35.9031 -78.9367 31° Northeast 163 188 5,500  Level Washington Center
05:26PM 35.9067 -78.9336 34° Northeast 164 189 5,500  Level Washington Center
05:26PM 35.9431 -78.9086 29° Northeast 161 185 5,500  Level Washington Center
05:27PM 35.9461 -78.9058 36° Northeast 164 189 5,500 -120 Level Washington Center
05:27PM 35.9775 -78.8769 37° Northeast 160 184 5,400  Descending Washington Center
05:28PM 35.9881 -78.8658 40° Northeast 162 186 5,500 -120 Climbing Washington Center
05:28PM 36.0158 -78.8458 30° Northeast 161 185 5,300 -480 Descending Washington Center
05:29PM 36.0286 -78.8389 24° Northeast 162 186 5,000 -780 Descending Washington Center
05:29PM 36.0556 -78.8225 26° Northeast 173 199 4,600 -600 Descending Washington Center
05:30PM 36.0700 -78.8106 34° Northeast 164 189 4,400 -540 Descending Washington Center
05:30PM 36.0981 -78.7892 32° Northeast 172 198 4,000 -600 Descending Washington Center
05:31PM 36.1103 -78.7803 30° Northeast 165 190 3,800 -420 Descending Washington Center
05:32PM 36.1472 -78.7517 32° Northeast 165 190 3,500 -300 Descending Washington Center